Darstellungsparameter: Aktuell verwendete Einstellungen:
Skalierung der Graphiken ... ?
xyx+y,   Skalierungsfaktor:      Skalierung: Modus: x, Faktor: 1
Darstellungszeitraum ... ?
Vom - - bis: - -   Zeitraum: 22.04.2020 - 24.04.2020
Min/Max/Avg-Anzeige ... ?
Zeige MMA aktuell
Zeige MMA Monat
Zeige MMA alles
Zeige --A aktuell
Zeige --A Monat
Zeige --A alles
Keine MMA-Anzeige
MMA:
Average (ber die Originaldaten)
MMA-Basis: 22.04.2020 - 24.04.2020
Quicknavigation für Darstellung... ?
Tage:      1T, 2T, 3T, 5T -1T -2T -3T -5T +1T +2T +3T +5T
Wochen: 1W, 2W, 3W -1W -2W -3W +1W +2W +3W
Monate: 1M, 3M, 6M -1M -3M -6M +1M +3M +6M
Jahre:    1J, 3J, 5J, 10J -1J -3J -5J -10J +1J +3J +5J +10J
Nutze für die Darstellung ... ?
Originaldaten oder ...
Mittelwerte Minima Maxima auf...
Stundenbasis Tagesbasis Wochenbasis
Monatsbasis Jahresbasis      Datenbasis: Mittelwerte auf Stundenbasis
Darstellen als:
Statistik (Auto) Statistik J:M      Darstellung:
Zur Graphik,    zurück zur Übersicht aller Sensoren.
 
Tabellarische Datenbersicht: ?
 
Sensor: Nr:Datum:Temp:Abs-Feuchte:Windchill:Wind:
Aussen-T/F 1 22-04-2020 00:00:00 11.28333 C 5.94 g/m*3 11.28 C 2.93333 km/h
2 22-04-2020 01:00:00 10.53333 C 5.95 g/m*3 10.53 C 2.14167 km/h
3 22-04-2020 02:00:00 9.98333 C 5.92 g/m*3 9.98 C 2.93333 km/h
4 22-04-2020 03:00:00 9.25833 C 5.89 g/m*3 9.26 C 0.93333 km/h
5 22-04-2020 04:00:00 8.41667 C 5.78 g/m*3 8.42 C 0.8 km/h
6 22-04-2020 05:00:00 7.49167 C 5.71 g/m*3 7.49 C 1.06667 km/h
7 22-04-2020 06:00:00 6.575 C 5.65 g/m*3 6.58 C 1.46667 km/h
8 22-04-2020 07:00:00 6.19167 C 5.83 g/m*3 6.19 C 2.53333 km/h
9 22-04-2020 08:00:00 7.35833 C 6.05 g/m*3 7.36 C 3.75 km/h
10 22-04-2020 09:00:00 10.36667 C 6.02 g/m*3 10.03 C 5.49167 km/h
11 22-04-2020 10:00:00 13.09167 C 5.88 g/m*3 13.09 C 8.06667 km/h
12 22-04-2020 11:00:00 15.875 C 5.68 g/m*3 15.88 C 11.15 km/h
13 22-04-2020 12:00:00 17.65 C 5.35 g/m*3 17.65 C 16.9 km/h
14 22-04-2020 13:00:00 18.93333 C 5.55 g/m*3 18.93 C 12.63333 km/h
15 22-04-2020 14:00:00 20.18333 C 5.74 g/m*3 20.18 C 14.23333 km/h
16 22-04-2020 15:00:00 21.40833 C 5.75 g/m*3 21.41 C 15.56667 km/h
17 22-04-2020 16:00:00 22.575 C 5.77 g/m*3 22.58 C 17.3 km/h
18 22-04-2020 17:00:00 22.65833 C 5.69 g/m*3 22.66 C 20.11667 km/h
19 22-04-2020 18:00:00 22.38333 C 5.59 g/m*3 22.38 C 18.50833 km/h
20 22-04-2020 19:00:00 21.275 C 5.58 g/m*3 21.28 C 12.09167 km/h
21 22-04-2020 20:00:00 18.38333 C 6.04 g/m*3 18.38 C 2.94167 km/h
22 22-04-2020 21:00:00 14.96667 C 6.03 g/m*3 14.97 C 1.46667 km/h
23 22-04-2020 22:00:00 13.81667 C 6.08 g/m*3 13.82 C 2.4 km/h
24 22-04-2020 23:00:00 13.74167 C 6.1 g/m*3 13.74 C 3.33333 km/h
25 23-04-2020 00:00:00 12.85 C 6.12 g/m*3 12.85 C 3.46667 km/h
Sensor: Nr:Datum:Temp:Abs-Feuchte:Windchill:Wind:
Aussen-T/F 26 23-04-2020 01:00:00 12.08333 C 6.14 g/m*3 12.08 C 3.34167 km/h
27 23-04-2020 02:00:00 10.35833 C 6.15 g/m*3 10.36 C 2 km/h
28 23-04-2020 03:00:00 9.51667 C 6.13 g/m*3 9.52 C 1.6 km/h
29 23-04-2020 04:00:00 8.39167 C 6.05 g/m*3 8.39 C 0.8 km/h
30 23-04-2020 05:00:00 6.975 C 5.97 g/m*3 6.98 C 0.26667 km/h
31 23-04-2020 06:00:00 6.3 C 5.9 g/m*3 6.3 C 0.13333 km/h
32 23-04-2020 07:00:00 5.95833 C 6.06 g/m*3 5.96 C 0.13333 km/h
33 23-04-2020 08:00:00 6.26667 C 6.41 g/m*3 6.27 C 0.8 km/h
34 23-04-2020 09:00:00 8.35 C 7.02 g/m*3 8.35 C 1.46667 km/h
35 23-04-2020 10:00:00 11.61667 C 7.35 g/m*3 11.62 C 2.00833 km/h
36 23-04-2020 11:00:00 16.36667 C 6.94 g/m*3 16.37 C 8.19167 km/h
37 23-04-2020 12:00:00 18.08333 C 6.71 g/m*3 18.08 C 10.48333 km/h
38 23-04-2020 13:00:00 19.425 C 5.88 g/m*3 19.43 C 9.675 km/h
39 23-04-2020 14:00:00 20.66667 C 5.93 g/m*3 20.67 C 9.55833 km/h
40 23-04-2020 15:00:00 22 C 5.97 g/m*3 22 C 8.475 km/h
41 23-04-2020 16:00:00 23.20833 C 6.07 g/m*3 23.21 C 10.225 km/h
42 23-04-2020 17:00:00 24.35833 C 6.12 g/m*3 24.36 C 7.24167 km/h
43 23-04-2020 18:00:00 25.35833 C 6.18 g/m*3 25.36 C 5.36667 km/h
44 23-04-2020 19:00:00 22.41667 C 8.81 g/m*3 22.42 C 3.875 km/h
45 23-04-2020 20:00:00 14.64167 C 8.41 g/m*3 14.64 C 6.85833 km/h
46 23-04-2020 21:00:00 12.975 C 7.37 g/m*3 12.98 C 1.6 km/h
47 23-04-2020 22:00:00 11.525 C 7.02 g/m*3 11.53 C 0 km/h
48 23-04-2020 23:00:00 10.15833 C 6.76 g/m*3 10.16 C 0 km/h
49 24-04-2020 00:00:00 9.33333 C 6.63 g/m*3 9.33 C 0.4 km/h
50 24-04-2020 01:00:00 8.5 C 6.57 g/m*3 8.5 C 0.8 km/h
Sensor: Nr:Datum:Temp:Abs-Feuchte:Windchill:Wind:
Aussen-T/F 51 24-04-2020 02:00:00 7.70833 C 6.46 g/m*3 7.71 C 0.4 km/h
52 24-04-2020 03:00:00 6.975 C 6.41 g/m*3 6.98 C 0.4 km/h
53 24-04-2020 04:00:00 6.50833 C 6.39 g/m*3 6.51 C 0.53333 km/h
54 24-04-2020 05:00:00 6.41667 C 6.43 g/m*3 6.42 C 0.4 km/h
55 24-04-2020 06:00:00 6.36667 C 6.47 g/m*3 6.37 C 0.66667 km/h
56 24-04-2020 07:00:00 6.59167 C 6.63 g/m*3 6.59 C 0.13333 km/h
57 24-04-2020 08:00:00 7.83333 C 7.04 g/m*3 7.83 C 0.4 km/h
58 24-04-2020 09:00:00 10.66667 C 7.6 g/m*3 10.67 C 0.26667 km/h
59 24-04-2020 10:00:00 12.975 C 8.09 g/m*3 12.98 C 2.13333 km/h
60 24-04-2020 11:00:00 15.21667 C 8.39 g/m*3 15.22 C 1.46667 km/h
61 24-04-2020 12:00:00 17.58333 C 8.57 g/m*3 17.58 C 5.1 km/h
62 24-04-2020 13:00:00 20.025 C 7.18 g/m*3 20.02 C 9.825 km/h
63 24-04-2020 14:00:00 21.325 C 7.67 g/m*3 21.33 C 10.23333 km/h
64 24-04-2020 15:00:00 22.06667 C 7.35 g/m*3 22.07 C 11.03333 km/h
65 24-04-2020 16:00:00 22.84167 C 6.48 g/m*3 22.84 C 11.69167 km/h
66 24-04-2020 17:00:00 22.55 C 5.98 g/m*3 22.55 C 14.36667 km/h
67 24-04-2020 18:00:00 21.59167 C 6.68 g/m*3 21.59 C 14.23333 km/h
68 24-04-2020 19:00:00 20.31667 C 7.25 g/m*3 20.32 C 12.9 km/h
69 24-04-2020 20:00:00 18.15833 C 7.43 g/m*3 18.16 C 5.50833 km/h
70 24-04-2020 21:00:00 15.80833 C 7.19 g/m*3 15.81 C 3.2 km/h
71 24-04-2020 22:00:00 14.64167 C 6.99 g/m*3 14.64 C 3.20833 km/h
72 24-04-2020 23:00:00 13.10833 C 6.03 g/m*3 13.11 C 2.675 km/h

Maximal/Minimal-Werte vom 22.04.2020 - 24.04.2020

Sensor Min Max Avg
Temp
(Aussen-T/F)
5.9 °C
23-04-2020  07:20:00
25.8 °C
23-04-2020  18:30:00
14.16 °C
Abs-Feuchte
(Aussen-T/F)
5.35 g/m*3
22-04-2020  12:00:00
8.81 g/m*3
23-04-2020  19:00:00
6.37 g/m*3
Windchill
(Aussen-T/F)
5.96 C
23-04-2020  07:00:00
25.36 C
23-04-2020  18:00:00
13.96 C

Die Daten stammen von einer Davis Vantage Pro 2 Wetter-Station und werden unter Linux mit der Software wview2wettercgi und aufbereitet. Alle Angaben erfolgen ohne Gewähr für ihre Vollständigkeit oder Richtigkeit.
Kontakt: Rainer Krienke krienke@uni-koblenz.de . Meine Webseiten an der Uni Koblenz oder privat.
Version: $Revision: 0.78 $